Regional Weather Roundup
Issued by NWS

Home | Current Version | Previous Version | Graphics & Text | Print | Product List | Glossary On
Versions: 1 2 3 4 5 6 7 8 9 10 11 12 13 14 15 16 17 18 19 20 21 22 23 24 25 26 27 28 29 30 31 32 33 34 35 36 37 38 39 40 41 42 43 44 45 46 47 48 49 50
518
ASUS44 KJAN 231403
RWRMS

MISSISSIPPI HOURLY WEATHER ROUNDUP
NATIONAL WEATHER SERVICE JACKSON MS
900 AM CDT WED JUL 23 2014

NOTE: "FAIR: INDICATES FEW OR NO CLOUDS BELOW 12,000 FEET WITH NO
SIGNIFICANT WEATHER AND/OR OBSTRUCTIONS TO VISIBILITY.

MSZ001>002-007>008-010>013-018>021-025>028-034>036-231500-
NORTHWEST MISSISSIPPI

CITY           SKY/WX    TMP DP  RH WIND       PRES   REMARKS
CLARKSDALE     FAIR      81  75  83 CALM      30.09R
CLEVELAND      CLOUDY    76  76 100 CALM      30.07S FOG
GREENWOOD      PTSUNNY   75  72  90 CALM      30.08R
GREENVILLE     SUNNY     80  74  81 CALM      30.07R
GRENADA        FAIR      73  72  94 S5        30.08S
OLIVE BRANCH   MOSUNNY   81  75  83 CALM      30.09R
OXFORD         FAIR      77  72  83 CALM      30.10R
TUNICA         SUNNY     81  72  74 CALM      30.09R
$$

MSZ003>006-009-014>017-022>024-029>033-037>039-231500-
NORTHEAST MISSISSIPPI

CITY           SKY/WX    TMP DP  RH WIND       PRES   REMARKS
BELMONT        FAIR      79  73  83 CALM      30.09S
COLUMBUS AFB   PTSUNNY   78  73  83 SE2       30.09S
CORINTH        FAIR      79  72  78 W5        30.08S
GOLDN TRIANGLE MOSUNNY   75  72  88 S7        30.10R
STARKVILLE     FAIR      77  72  83 CALM      30.09S
TUPELO         SUNNY     81  73  76 CALM      30.08R
$$

MSZ040-058-231500-
CENTRAL MISSISSIPPI

CITY           SKY/WX    TMP DP  RH WIND       PRES   REMARKS
JACKSON INTL   PTSUNNY   79  71  76 CALM      30.08S
JACKSON HAWKNS PTSUNNY   79  70  74 CALM      30.08S
MERIDIAN KEY   SUNNY     77  71  82 SE3       30.09S
MERIDIAN NAS   MOSUNNY   77  71  82 SE5       30.10S
RAYMOND        FAIR      77  73  88 CALM      30.08S
VICKSBURG      SUNNY     78  72  81 CALM      30.07F
$$

MSZ059>079-231500-
SOUTH MISSISSIPPI

CITY           SKY/WX    TMP DP  RH WIND       PRES   REMARKS
BROOKHAVEN     FAIR      75  70  83 CALM      30.10F
COLUMBIA       CLOUDY    72  72 100 CALM      30.07F
HATTIESBURG    FOG       71  71 100 CALM      30.09S VSB 1/4
MCCOMB         SUNNY     75  69  81 NE3       30.08S
NATCHEZ        PTSUNNY   75  70  83 CALM      30.10R
PINE BELT      CLOUDY    72  68  88 E3        30.10S
$$

MSZ080>082-231500-
COASTAL MISSISSIPPI

CITY           SKY/WX    TMP DP  RH WIND       PRES   REMARKS
BAY ST LOUIS   PTSUNNY  N/A N/A N/A CALM      30.07R
BILOXI         PTSUNNY   77  73  87 NE3       30.06S
PASCAGOULA     MOSUNNY   80  74  81 CALM      30.07S
GULFPORT       PTSUNNY   79  71  76 N5        30.06S
$$



USA.gov is the U.S. government's official web portal to all federal, state and local government web resources and services.